Location: Baumgarten
(49.0970°N, 12.7493°E)
Time: 09:23:53
(UTC+00:00)

Cosmos 371 Rocket - Visible Passes

Search period start: 23 October 2020 00:00
Search period end: 02 November 2020 00:00
Orbit: 684 x 699 km, 74.0° (Epoch: 22 October)

Date Brightness Start Highest point End Pass type
(mag) Time Alt. Az. Time Alt. Az. Time Alt. Az.
23 Oct 5.0 17:01:38 10° WSW 17:06:00 33° WNW 17:10:25 10° N visible
24 Oct 6.0 17:44:16 10° W 17:47:07 15° NW 17:49:59 10° N visible
25 Oct 5.1 16:42:16 10° WSW 16:46:35 32° NW 16:50:56 10° N visible
26 Oct 5.9 17:25:03 10° WNW 17:27:44 15° NW 17:30:26 10° N visible
27 Oct 5.1 16:22:55 10° WSW 16:27:09 30° NW 16:31:27 10° N visible
28 Oct 5.9 17:05:50 10° WNW 17:08:20 14° NW 17:10:51 10° NNW visible
30 Oct 5.9 16:46:39 10° WNW 16:48:57 13° NW 16:51:16 10° NNW visible
01 Nov 5.9 16:27:28 10° WNW 16:29:34 13° NW 16:31:40 10° NNW visible
